This is the latest recevied weather packets stored in our database for station/object Oberstadn. If no packets are shown the sender has not sent any weather packets the latest 10 day(s).
| Time | Temp. | Humidity | Pressure | Rain* | Wind** | Luminosity | Snow |
|---|---|---|---|---|---|---|---|
| 1778072531 | 17.78° C | 60% | 1005.7 hPa | 0 mm | - | - | - |
| 1778070730 | 17.22° C | 63% | 1005.5 hPa | 0 mm | - | - | - |
| 1778068930 | 17.22° C | 64% | 1005.4 hPa | 0 mm | - | - | - |
| 1778067137 | 16.67° C | 64% | 1005.7 hPa | 0 mm | - | - | - |
| 1778065330 | 15.56° C | 70% | 1005.9 hPa | 0 mm | - | - | - |
| 1778061734 | 15.56° C | 73% | 1006.5 hPa | 0 mm | - | - | - |
| 1778059931 | 15° C | 73% | 1006.6 hPa | 0 mm | - | - | - |
| 1778058131 | 14.44° C | 79% | 1006.4 hPa | 0 mm | - | - | - |
| 1778056331 | 13.33° C | 80% | 1006.4 hPa | 0 mm | - | - | - |
| 1778054532 | 13.33° C | 81% | 1006.4 hPa | 0 mm | - | - | - |
| 1778052731 | 12.78° C | 82% | 1006.7 hPa | 0 mm | - | - | - |
| 1778050932 | 12.22° C | 86% | 1006.9 hPa | 0 mm | - | - | - |
| 1778049131 | 11.67° C | 90% | 1006.6 hPa | 0 mm | - | - | - |
| 1778047331 | 10° C | 93% | 1006.7 hPa | 0 mm | - | - | - |
| 1778045531 | 8.33° C | 93% | 1006.8 hPa | 0 mm | - | - | - |
| 1778043731 | 7.22° C | 91% | 1007 hPa | 0 mm | - | - | - |
| 1778041932 | 7.22° C | 90% | 1007.2 hPa | 0 mm | - | - | - |
| 1778040131 | 7.78° C | 90% | 1007.4 hPa | 0 mm | - | - | - |
| 1778038331 | 8.33° C | 89% | 1007.7 hPa | 0 mm | - | - | - |
| 1778036532 | 8.89° C | 90% | 1007.7 hPa | 0 mm | - | - | - |
| 1778034732 | 9.44° C | 88% | 1008.1 hPa | 0 mm | - | - | - |
| 1778032932 | 10° C | 88% | 1008.1 hPa | 0 mm | - | - | - |
| 1778031131 | 10° C | 88% | 1008.3 hPa | 0 mm | - | - | - |
| 1778029332 | 10.56° C | 88% | 1008.6 hPa | 0 mm | - | - | - |
| 1778027529 | 10.56° C | 88% | 1008.4 hPa | 0 mm | - | - | - |
* Rain since midnight (hover to see other rain measurements)
** Current wind speed in m/s (hover to see current wind gust speed)